| time (UTC) | temp C | wind direction | speed KPH | gust KPH | rain 1hr cm | rain 24hr cm | rain mn cm | humidity % | barometer mb |
| 20260906142902 | 20 | 39 | 8.0 | 11.3 | 0.00 | 0.00 | 0.00 | 84 | 1021.7 |
| 20260906135901 | 18 | 45 | 4.8 | 9.7 | 0.00 | 0.00 | 0.00 | 88 | 1021.3 |
| 20260906134401 | 18 | 55 | 9.7 | 11.3 | 0.00 | 0.00 | 0.00 | 90 | 1021.7 |
| 20260906131402 | 17 | 74 | 4.8 | 8.0 | 0.00 | 0.00 | 0.00 | 92 | 1022.0 |
| 20260906125902 | 17 | 77 | 6.4 | 6.4 | 0.00 | 0.00 | 0.00 | 92 | 1021.7 |
| 20260906124902 | 17 | 143 | 0.0 | 0.0 | 0.00 | 0.00 | 0.00 | 95 | 1021.7 |
| 20260906123402 | 16 | 7 | 0.0 | 0.0 | 0.00 | 0.00 | 0.00 | 97 | 1021.7 |
| 20260906121902 | 15 | 103 | 0.0 | 0.0 | 0.00 | 0.00 | 0.00 | 100 | 1021.3 |
| 20260906120401 | 15 | 260 | 0.0 | 0.0 | 0.00 | 0.00 | 0.00 | 100 | 1021.3 |
| 20260906114901 | 14 | 68 | 0.0 | 0.0 | 0.00 | 0.00 | 0.00 | 100 | 1021.0 |
| 20260906113402 | 14 | 81 | 0.0 | 0.0 | 0.00 | 0.00 | 0.00 | 100 | 1020.7 |
| 20260906111902 | 14 | 63 | 0.0 | 0.0 | 0.00 | 0.00 | 0.00 | 100 | 1021.0 |
| 20260906110402 | 14 | 83 | 0.0 | 0.0 | 0.00 | 0.00 | 0.00 | 100 | 1020.7 |
| 20260906100401 | 15 | 17 | 4.8 | 4.8 | 0.00 | 0.00 | 0.00 | 100 | 1020.3 |
| 20260906094902 | 15 | 51 | 6.4 | 6.4 | 0.00 | 0.00 | 0.00 | 100 | 1020.3 |
| 20260906090402 | 15 | 20 | 0.0 | 0.0 | 0.00 | 0.00 | 0.00 | 100 | 1020.3 |
| 20260906084901 | 15 | 131 | 0.0 | 0.0 | 0.00 | 0.00 | 0.00 | 100 | 1020.7 |
| 20260906081901 | 16 | 54 | 0.0 | 0.0 | 0.00 | 0.00 | 0.00 | 100 | 1020.3 |
| 20260906080402 | 16 | 120 | 0.0 | 0.0 | 0.00 | 0.00 | 0.00 | 100 | 1020.3 |
| 20260906073401 | 16 | 27 | 0.0 | 0.0 | 0.00 | 0.00 | 0.00 | 100 | 1020.3 |
| 20260906071901 | 16 | 25 | 0.0 | 0.0 | 0.00 | 0.00 | 0.00 | 100 | 1020.3 |
| 20260906070401 | 16 | 25 | 0.0 | 0.0 | 0.00 | 0.00 | 0.00 | 100 | 1020.3 |
| 20260906063402 | 16 | 36 | 0.0 | 0.0 | 0.00 | 0.00 | 0.00 | 100 | 1020.7 |
| 20260906061902 | 16 | 72 | 0.0 | 0.0 | 0.00 | 0.00 | 0.00 | 100 | 1020.7 |
| 20260906050402 | 16 | 108 | 0.0 | 0.0 | 0.00 | 0.00 | 0.00 | 100 | 1020.0 |
| 20260906045902 | 16 | 167 | 0.0 | 0.0 | 0.00 | 0.00 | 0.00 | 100 | 1020.0 |
| 20260906043402 | 16 | 99 | 0.0 | 0.0 | 0.00 | 0.00 | 0.00 | 100 | 1020.0 |
| 20260906041902 | 16 | 107 | 0.0 | 0.0 | 0.00 | 0.00 | 0.00 | 100 | 1019.6 |
| 20260906035402 | 17 | 295 | 0.0 | 0.0 | 0.00 | 0.00 | 0.00 | 100 | 1019.3 |
| 20260906032402 | 17 | 90 | 0.0 | 0.0 | 0.00 | 0.00 | 0.00 | 99 | 1019.0 |
| 20260906030902 | 17 | 49 | 0.0 | 0.0 | 0.00 | 0.00 | 0.00 | 99 | 1018.6 |
| 20260906025402 | 17 | 52 | 0.0 | 4.8 | 0.00 | 0.00 | 0.00 | 99 | 1019.0 |
| 20260906015402 | 18 | 43 | 4.8 | 4.8 | 0.00 | 0.00 | 0.00 | 98 | 1018.3 |
| 20260906013902 | 18 | 55 | 3.2 | 4.8 | 0.00 | 0.00 | 0.00 | 97 | 1018.3 |
| 20260906012402 | 19 | 70 | 0.0 | 0.0 | 0.00 | 0.00 | 0.00 | 95 | 1018.3 |
| 20260906011402 | 19 | 70 | 0.0 | 0.0 | 0.00 | 0.00 | 0.00 | 94 | 1018.3 |
| 20260906003402 | 21 | 99 | 0.0 | 0.0 | 0.00 | 0.00 | 0.00 | 89 | 1017.9 |
| 20260906001902 | 21 | 99 | 0.0 | 0.0 | 0.00 | 0.00 | 0.00 | 87 | 1017.9 |
| 20260905234902 | 22 | 141 | 0.0 | 3.2 | 0.00 | 0.00 | 0.00 | 85 | 1018.3 |
| 20260905233902 | 22 | 192 | 0.0 | 8.0 | 0.00 | 0.00 | 0.00 | 84 | 1018.3 |
| 20260905232402 | 23 | 90 | 3.2 | 6.4 | 0.00 | 0.00 | 0.00 | 82 | 1018.3 |
| 20260905225902 | 23 | 74 | 1.6 | 12.9 | 0.00 | 0.00 | 0.00 | 81 | 1017.9 |
| 20260905224402 | 23 | 87 | 6.4 | 11.3 | 0.00 | 0.00 | 0.00 | 80 | 1018.3 |
| 20260905222902 | 24 | 106 | 9.7 | 11.3 | 0.00 | 0.00 | 0.00 | 79 | 1018.3 |
| 20260905214902 | 24 | 141 | 3.2 | 8.0 | 0.00 | 0.00 | 0.00 | 77 | 1018.3 |
| 20260905213401 | 24 | 91 | 6.4 | 9.7 | 0.00 | 0.00 | 0.00 | 77 | 1018.3 |
| 20260905210902 | 24 | 154 | 6.4 | 12.9 | 0.00 | 0.00 | 0.00 | 79 | 1018.3 |
| 20260905195901 | 23 | 6 | 4.8 | 12.9 | 0.00 | 0.00 | 0.00 | 82 | 1018.6 |
| 20260905194401 | 23 | 147 | 9.7 | 12.9 | 0.00 | 0.00 | 0.00 | 80 | 1018.6 |
| 20260905192902 | 23 | 66 | 6.4 | 12.9 | 0.00 | 0.00 | 0.00 | 84 | 1018.6 |
| 20260905191402 | 22 | 120 | 4.8 | 11.3 | 0.00 | 0.00 | 0.00 | 83 | 1018.6 |
| 20260905183402 | 22 | 78 | 8.0 | 8.0 | 0.00 | 0.00 | 0.00 | 87 | 1018.6 |
| 20260905181902 | 22 | 123 | 6.4 | 11.3 | 0.00 | 0.00 | 0.00 | 87 | 1018.6 |
| 20260905174901 | 22 | 210 | 3.2 | 6.4 | 0.00 | 0.00 | 0.00 | 87 | 1019.0 |
| 20260905173401 | 22 | 85 | 6.4 | 9.7 | 0.00 | 0.00 | 0.00 | 86 | 1019.0 |
| 20260905171901 | 22 | 90 | 11.3 | 11.3 | 0.00 | 0.00 | 0.00 | 87 | 1019.0 |
| 20260905170401 | 22 | 85 | 6.4 | 8.0 | 0.00 | 0.00 | 0.00 | 88 | 1019.0 |
| 20260905161902 | 21 | 84 | 6.4 | 11.3 | 0.00 | 0.00 | 0.00 | 92 | 1019.0 |
| 20260905160402 | 21 | 54 | 8.0 | 11.3 | 0.00 | 0.00 | 0.00 | 92 | 1019.0 |
| 20260905155402 | 21 | 107 | 6.4 | 9.7 | 0.00 | 0.00 | 0.00 | 93 | 1019.0 |
| 20260905153902 | 20 | 72 | 4.8 | 11.3 | 0.00 | 0.00 | 0.00 | 96 | 1019.0 |
| 20260905151402 | 20 | 74 | 9.7 | 11.3 | 0.00 | 0.00 | 0.00 | 96 | 1018.6 |